Home > Time Zones > World Clock > Weather > Yemen > Aden > Past weeks

Flag Weather past 2 weeks in Aden, Yemen

Now
55 °F

Passing clouds.


Feels Like: 55 °F
Forecast: 76 / 82 °F
Wind: 3 mph from East

Location: Sana'A Airport

Current Time: Nov 26, 2014 at 7:49:02 AM

Latest Report: Nov 26, 2014 at 7:00 AM


Visibility: N/A

Pressure: 30.30 "Hg

Humidity: 63%

Dew point: 43 °F

Location of AdenLocation

Historic Weather in Aden — Graph

°F

Aden temperature yesterday

Maximum temperature yesterday: 77 °F (at 1:00 PM)
Minimum temperature yesterday: 52 °F (at 6:00 AM)
Average temperature yesterday: 64 °F

Past Weeks' High & Low Weather Summary

 TemperatureHumidityPressure
High77 °F (Nov 17, 2:00 PM)88% (Nov 24, 5:00 AM)30.42 "Hg (Nov 24, 5:00 AM)
Low43 °F (Nov 11, 6:00 AM)15% (Nov 16, 1:00 PM)30.18 "Hg (Nov 24, 2:00 PM)
Average61 °F40%30.31 "Hg
* Reported Nov 11 6:00 AM — Nov 26 6:00 AM, Aden, Weather by CustomWeather, © 2014

Note: Actual official high and low records may vary slightly from our data, if they occured in-between our weather recording intervals... More about our weather records

Advertising

Aden weather history for previous 24 hours

 ConditionsComfort  
Time TempWeatherWind HumidityBarometerVisibility
6:00 AM
Nov 26
54 °FClear.2 mph82%30.27 "Hg10 mi
5:00 AM54 °FPassing clouds.3 mph82%30.27 "HgN/A
4:00 AM55 °FClear.2 mph77%30.27 "Hg10 mi
3:00 AM55 °FPassing clouds.2 mph72%30.27 "HgN/A
2:00 AM57 °FPassing clouds.No wind63%30.27 "HgN/A
1:00 AM59 °FPassing clouds.1 mph68%30.27 "HgN/A
12:00 AM61 °FPassing clouds.3 mph48%30.30 "HgN/A
11:00 PM
Nov 25
63 °FPassing clouds.2 mph56%30.30 "HgN/A
10:00 PM63 °FPassing clouds.2 mph59%30.30 "HgN/A
9:00 PM64 °FPassing clouds.3 mph60%30.30 "HgN/A
8:00 PM64 °FPassing clouds.3 mph60%30.30 "HgN/A
7:00 PM66 °FPassing clouds.6 mph56%30.27 "HgN/A
6:00 PM70 °FPassing clouds.5 mph40%30.24 "HgN/A
4:00 PM75 °FScattered clouds.8 mph25%30.21 "HgN/A
3:00 PM75 °FScattered clouds.12 mph25%30.21 "HgN/A
2:00 PM77 °FPartly sunny.10 mph24%30.21 "HgN/A
1:00 PM77 °FScattered clouds.8 mph22%30.21 "HgN/A
12:00 PM75 °FScattered clouds.7 mph24%30.24 "HgN/A
11:00 AM73 °FPassing clouds.3 mph27%30.27 "HgN/A
10:00 AM70 °FPassing clouds.2 mph40%30.30 "HgN/A
9:00 AM64 °FSunny.2 mph52%30.30 "Hg10 mi
8:00 AM59 °FPassing clouds.3 mph59%30.30 "HgN/A
7:00 AM54 °FSunny.3 mph67%30.30 "Hg10 mi
Weather by CustomWeather, © 2014

See weather overviewHow to use our weather pages